FW8630 Weather Reports


time (UTC)temp
C
wind
direction
speed
KPH
gust
KPH
rain 1hr
cm
rain 24hr
cm
rain mn
cm
humidity
%
barometer
mb
20260903174510 15 209 3.2 12.9 0.13 0.23 0.23 88 1007.9
20260903173016 15 192 1.6 16.1 0.08 0.15 0.15 88 1008.2
20260903171506 15 196 3.2 11.3 0.10 0.15 0.15 88 1008.4
20260903170009 15 188 4.8 20.9 0.08 0.13 0.13 88 1008.6
20260903164502 15 195 4.8 19.3 0.05 0.10 0.10 89 1008.7
20260903163100 15 216 8.0 17.7 0.05 0.05 0.05 89 1008.9
20260903161558 15 178 4.8 12.9 0.03 0.05 0.05 89 1009.1
20260903160057 16 202 6.4 20.9 0.03 0.05 0.05 89 1009.3
20260903154557 16 223 9.7 24.1 0.03 0.05 0.05 89 1009.4
20260903153055 16 224 8.0 19.3 0.03 0.03 0.03 89 1009.7
20260903151553 16 178 4.8 14.5 0.03 0.03 0.03 90 1009.9
20260903150051 15 183 3.2 9.7 0.03 0.03 0.03 92 1010.0
20260903144550 15 189 3.2 8.0 0.03 0.03 0.03 93 1010.2
20260903143105 15 166 3.2 9.7 0.00 0.00 0.00 94 1010.4
20260903141547 16 173 4.8 12.9 0.00 0.00 0.00 94 1010.5
20260903140045 15 198 4.8 12.9 0.00 0.00 0.00 93 1010.7
20260903134543 15 196 6.4 19.3 0.00 0.00 0.00 93 1010.9
20260903133043 15 195 4.8 12.9 0.00 0.00 0.00 93 1011.0
20260903131550 15 227 6.4 12.9 0.00 0.00 0.00 90 1011.1
20260903130039 16 229 6.4 14.5 0.00 0.00 0.00 88 1011.3
20260903124540 15 190 6.4 14.5 0.00 0.00 0.00 90 1011.3
20260903123041 15 205 6.4 19.3 0.00 0.00 0.00 91 1011.4
20260903121536 16 200 8.0 17.7 0.00 0.00 0.00 89 1011.4
20260903120039 15 228 6.4 20.9 0.00 0.00 0.00 89 1011.5
20260903114534 15 207 8.0 17.7 0.00 0.00 0.00 88 1011.5
20260903113041 16 236 6.4 16.1 0.00 0.00 0.00 86 1011.6
20260903111532 16 215 6.4 16.1 0.00 0.00 0.00 86 1011.8
20260903110035 16 232 9.7 14.5 0.00 0.00 0.00 84 1011.8
20260903104531 16 211 8.0 14.5 0.00 0.00 0.00 84 1011.8
20260903103030 16 223 6.4 19.3 0.00 0.00 0.00 83 1012.0
20260903101527 16 232 6.4 19.3 0.00 0.00 0.00 83 1012.0
20260903100027 16 263 6.4 16.1 0.00 0.00 0.00 81 1012.1
20260903094525 15 218 8.0 25.7 0.00 0.00 0.00 82 1012.2
20260903093029 15 236 6.4 19.3 0.00 0.00 0.00 80 1012.3
20260903091521 15 222 8.0 19.3 0.00 0.00 0.00 79 1012.3
20260903090021 15 240 9.7 19.3 0.00 0.00 0.00 81 1012.2
20260903084523 15 269 8.0 22.5 0.00 0.00 0.00 79 1012.3
20260903083018 14 248 6.4 17.7 0.00 0.00 0.00 81 1012.5
20260903081518 15 239 4.8 19.3 0.00 0.00 0.00 81 1012.4
20260903080016 14 205 8.0 17.7 0.00 0.00 0.00 80 1012.5
20260903074515 14 267 6.4 24.1 0.00 0.00 0.00 80 1012.5
20260903073014 14 248 6.4 22.5 0.00 0.00 0.00 82 1012.5
20260903071513 14 261 6.4 22.5 0.00 0.00 0.00 81 1012.5
20260903070012 14 238 8.0 25.7 0.00 0.00 0.00 81 1012.5
20260903064514 13 248 8.0 27.4 0.00 0.00 0.00 83 1012.6
20260903063010 13 228 8.0 24.1 0.00 0.00 0.00 83 1012.6
20260903061510 13 227 6.4 29.0 0.00 0.00 0.00 83 1012.6
20260903060014 13 238 8.0 29.0 0.00 0.00 0.00 83 1012.7
20260903054507 14 263 9.7 29.0 0.00 0.00 0.00 85 1012.6
20260903053004 13 234 12.9 29.0 0.00 0.00 0.00 84 1012.5
20260903051503 13 252 9.7 24.1 0.00 0.00 0.00 85 1012.6
20260903050101 13 262 14.5 29.0 0.00 0.00 0.00 84 1012.4
20260903044600 14 230 6.4 17.7 0.00 0.00 0.00 83 1012.4
20260903043058 14 257 9.7 29.0 0.00 0.00 0.00 85 1012.4
20260903041605 14 228 9.7 27.4 0.00 0.00 0.00 83 1012.3
20260903040053 14 257 6.4 30.6 0.00 0.00 0.00 84 1012.3
20260903034559 14 218 6.4 35.4 0.00 0.00 0.00 84 1012.4
20260903033048 14 218 9.7 24.1 0.00 0.00 0.00 83 1012.5
20260903031549 15 246 9.7 33.8 0.00 0.00 0.00 84 1012.5
20260903030044 15 275 8.0 24.1 0.00 0.00 0.00 87 1012.4
20260903024542 15 252 11.3 27.4 0.00 0.00 0.00 85 1012.4
20260903023039 15 248 8.0 24.1 0.00 0.00 0.00 85 1012.5
20260903021537 15 250 4.8 20.9 0.00 0.00 0.00 85 1012.6
20260903020049 15 215 6.4 20.9 0.00 0.00 0.00 85 1012.6
20260903014536 15 283 12.9 25.7 0.00 0.00 0.00 85 1012.6
20260903013034 15 232 4.8 19.3 0.00 0.00 0.00 84 1012.6
20260903011535 15 213 8.0 17.7 0.00 0.00 0.00 83 1012.6
20260903003051 16 243 6.4 20.9 0.00 0.00 0.00 84 1012.7
20260902234531 16 248 8.0 29.0 0.00 0.00 0.00 90 1012.8
20260902233029 16 219 9.7 27.4 0.00 0.00 0.00 91 1012.8
20260902231525 16 254 6.4 24.1 0.00 0.00 0.00 90 1012.8
20260902230024 16 244 6.4 20.9 0.00 0.00 0.00 90 1012.8
20260902224523 16 252 8.0 22.5 0.00 0.00 0.00 90 1012.8
20260902223028 16 250 4.8 19.3 0.00 0.00 0.00 90 1012.7
20260902221519 16 237 6.4 32.2 0.00 0.00 0.00 91 1012.7
20260902220020 16 224 6.4 22.5 0.00 0.00 0.00 92 1012.6
20260902214515 17 251 6.4 19.3 0.00 0.00 0.00 93 1012.6
20260902213014 17 214 6.4 14.5 0.00 0.00 0.00 93 1012.6
20260902211514 17 251 8.0 17.7 0.00 0.00 0.00 92 1012.6
20260902210113 17 244 8.0 19.3 0.00 0.00 0.00 92 1012.7
20260902204512 17 211 4.8 16.1 0.00 0.00 0.00 92 1012.6
20260902203012 17 236 6.4 17.7 0.00 0.00 0.00 92 1012.5
20260902201518 17 188 8.0 17.7 0.00 0.00 0.00 92 1012.6
20260902200011 17 225 6.4 17.7 0.00 0.00 0.00 91 1012.8
20260902194516 17 246 6.4 19.3 0.00 0.00 0.00 91 1012.7
20260902193011 17 232 6.4 16.1 0.00 0.00 0.00 91 1012.7
20260902191513 17 223 6.4 17.7 0.00 0.00 0.00 90 1012.7
20260902190009 17 220 6.4 16.1 0.00 0.00 0.00 90 1012.7
20260902184508 17 222 4.8 16.1 0.00 0.00 0.00 91 1012.7
20260902183009 17 248 4.8 11.3 0.00 0.00 0.00 92 1012.6
20260902181507 17 205 6.4 14.5 0.00 0.00 0.00 91 1012.6
20260902180008 17 199 4.8 12.9 0.00 0.00 0.00 91 1012.6